Flag for Sweden Weather past 2 weeks in Norrköping, Sweden

Now
75 °F

Passing clouds.


Feels Like: 77 °F
Forecast: 54 / 80 °F
Wind: 3 mph from East

Location: Norrkoping Airport

Current Time: Jul 22, 2014 at 10:09:20 AM

Latest Report: Jul 22, 2014 at 9:20 AM


Visibility: N/A

Pressure: 30.24 "Hg

Humidity: 65%

Dew point: 63 °F

Location of NorrköpingLocation

Historic Weather in Norrköping — Graph

°F

Norrköping temperature yesterday

Maximum temperature yesterday: 82 °F (at 3:50 PM)
Minimum temperature yesterday: 54 °F (at 3:20 AM)
Average temperature yesterday: 69 °F

Past Weeks' High & Low Weather Summary

 TemperatureHumidityPressure
High82 °F (Jul 10, 1:20 PM)100% (Jul 8, 5:50 AM)30.24 "Hg (Jul 8, 5:50 AM)
Low48 °F (Jul 12, 1:50 AM)30% (Jul 9, 3:20 PM)29.62 "Hg (Jul 13, 3:50 PM)
Average67 °F70%30.02 "Hg
* Reported Jul 7 8:20 AM — Jul 22 8:50 AM, Norrköping, Weather by CustomWeather, © 2014

Note: Actual official high and low records may vary slightly from our data, if they occured in-between our weather recording intervals... More about our weather records

Advertising

Norrköping weather history for previous 24 hours

 ConditionsComfort  
Time TempWeatherWind HumidityBarometerVisibility
8:50 AM
Jul 22
72 °FPassing clouds.3 mph69%30.24 "HgN/A
8:20 AM73 °FSunny.No wind69%30.21 "Hg10 mi
7:50 AM72 °FSunny.1 mph78%30.21 "Hg10 mi
7:20 AM68 °FSunny.No wind83%30.21 "Hg10 mi
6:50 AM64 °FSunny.No wind88%30.21 "Hg10 mi
6:20 AM63 °FSunny.No wind94%30.21 "Hg10 mi
5:50 AM57 °FSunny.No wind100%30.21 "Hg10 mi
5:20 AM55 °FCool.No wind100%30.21 "HgN/A
4:50 AM55 °FCool.No wind100%30.18 "HgN/A
4:20 AM55 °FCool.No wind100%30.18 "HgN/A
3:50 AM55 °FCool.No wind100%30.18 "HgN/A
3:20 AM55 °FCool.No wind100%30.18 "HgN/A
2:50 AM57 °FCool.No wind94%30.18 "HgN/A
2:20 AM57 °FCool.No wind94%30.18 "HgN/A
1:50 AM57 °FCool.No wind94%30.18 "HgN/A
1:20 AM59 °FCool.No wind88%30.18 "HgN/A
12:50 AM59 °FCool.2 mph94%30.18 "HgN/A
12:20 AM61 °FCool.No wind83%30.18 "HgN/A
11:50 PM
Jul 21
61 °FCool.No wind88%30.18 "HgN/A
11:20 PM63 °FMild.No wind83%30.15 "HgN/A
10:50 PM63 °FClear.2 mph83%30.15 "Hg10 mi
10:20 PM64 °FSunny.5 mph78%30.15 "Hg10 mi
9:50 PM68 °FSunny.No wind69%30.15 "Hg10 mi
9:20 PM70 °FSunny.2 mph69%30.12 "Hg10 mi
8:50 PM72 °FSunny.5 mph65%30.12 "Hg10 mi
8:20 PM75 °FSunny.6 mph57%30.12 "Hg10 mi
7:50 PM77 °FSunny.8 mph47%30.12 "Hg10 mi
7:20 PM77 °FSunny.10 mph47%30.12 "Hg10 mi
6:50 PM79 °FSunny.12 mph42%30.12 "Hg10 mi
6:20 PM79 °FSunny.12 mph42%30.12 "Hg10 mi
5:50 PM79 °FSunny.10 mph39%30.12 "Hg10 mi
5:20 PM79 °FSunny.8 mph42%30.09 "Hg10 mi
4:50 PM81 °FPassing clouds.8 mph39%30.09 "HgN/A
4:20 PM82 °FPassing clouds.7 mph35%30.09 "HgN/A
3:50 PM82 °FPassing clouds.9 mph32%30.09 "HgN/A
3:20 PM81 °FPassing clouds.6 mph42%30.09 "HgN/A
2:50 PM81 °FSunny.9 mph39%30.09 "Hg10 mi
2:20 PM79 °FPassing clouds.9 mph42%30.09 "HgN/A
1:50 PM79 °FSunny.10 mph42%30.09 "Hg10 mi
1:20 PM79 °FPassing clouds.10 mph48%30.09 "HgN/A
12:50 PM79 °FScattered clouds.9 mph51%30.09 "HgN/A
12:20 PM77 °FScattered clouds.9 mph57%30.09 "HgN/A
11:50 AM75 °FScattered clouds.8 mph61%30.09 "HgN/A
11:20 AM77 °FPassing clouds.7 mph57%30.09 "HgN/A
10:50 AM75 °FPassing clouds.8 mph61%30.09 "HgN/A
10:20 AM73 °FPassing clouds.7 mph65%30.09 "HgN/A
Weather by CustomWeather, © 2014

See weather overviewHow to use our weather pages